| time (UTC) | temp F | wind direction | speed MPH | gust MPH | rain 1hr in | rain 24hr in | rain mn in | humidity % | barometer mb |
| 20260504033057 | 62 | 180 | 2.0 | 5.0 | 0.00 | 0.00 | 0.00 | 60 | 1017.1 |
| 20260504031540 | 63 | 190 | 2.0 | 5.0 | 0.00 | 0.00 | 0.00 | 59 | 1017.1 |
| 20260504030030 | 63 | 188 | 2.0 | 5.0 | 0.00 | 0.00 | 0.00 | 59 | 1017.1 |
| 20260504024508 | 64 | 183 | 2.0 | 5.0 | 0.00 | 0.00 | 0.00 | 58 | 1017.0 |
| 20260504023013 | 64 | 180 | 2.0 | 6.0 | 0.00 | 0.00 | 0.00 | 58 | 1016.9 |
| 20260504021509 | 65 | 192 | 2.0 | 4.0 | 0.00 | 0.00 | 0.00 | 58 | 1016.8 |
| 20260504020046 | 66 | 168 | 2.0 | 4.0 | 0.00 | 0.00 | 0.00 | 57 | 1016.7 |
| 20260504014517 | 67 | 163 | 2.0 | 5.0 | 0.00 | 0.00 | 0.00 | 57 | 1016.6 |
| 20260504013058 | 69 | 159 | 0.0 | 5.0 | 0.00 | 0.00 | 0.00 | 57 | 1016.5 |
| 20260504011529 | 70 | 164 | 2.0 | 6.0 | 0.00 | 0.00 | 0.00 | 57 | 1016.4 |
| 20260504010041 | 71 | 147 | 2.0 | 5.0 | 0.00 | 0.00 | 0.00 | 57 | 1016.6 |
| 20260504004555 | 73 | 190 | 2.0 | 5.0 | 0.00 | 0.00 | 0.00 | 58 | 1016.4 |
| 20260504003013 | 74 | 181 | 2.0 | 5.0 | 0.00 | 0.00 | 0.00 | 59 | 1016.6 |
| 20260504001556 | 75 | 157 | 2.0 | 7.0 | 0.00 | 0.00 | 0.00 | 59 | 1016.6 |
| 20260504000111 | 76 | 178 | 5.0 | 8.0 | 0.00 | 0.00 | 0.00 | 60 | 1016.7 |
| 20260503234527 | 76 | 181 | 4.0 | 9.0 | 0.00 | 0.00 | 0.00 | 61 | 1016.9 |
| 20260503233028 | 76 | 178 | 3.0 | 10.0 | 0.00 | 0.00 | 0.00 | 61 | 1017.0 |
| 20260503231512 | 77 | 144 | 5.0 | 13.0 | 0.00 | 0.00 | 0.00 | 62 | 1017.0 |
| 20260503230054 | 77 | 209 | 2.0 | 10.0 | 0.00 | 0.00 | 0.00 | 63 | 1017.0 |
| 20260503224508 | 77 | 150 | 5.0 | 13.0 | 0.00 | 0.00 | 0.00 | 63 | 1017.0 |
| 20260503223006 | 77 | 147 | 5.0 | 11.0 | 0.00 | 0.00 | 0.00 | 64 | 1017.1 |
| 20260503221600 | 78 | 213 | 5.0 | 10.0 | 0.00 | 0.00 | 0.00 | 65 | 1017.4 |
| 20260503220027 | 77 | 171 | 4.0 | 12.0 | 0.00 | 0.00 | 0.00 | 66 | 1017.5 |
| 20260503214542 | 77 | 186 | 6.0 | 10.0 | 0.00 | 0.00 | 0.00 | 67 | 1017.9 |
| 20260503213028 | 77 | 146 | 6.0 | 12.0 | 0.00 | 0.00 | 0.00 | 68 | 1017.9 |
| 20260503211524 | 78 | 114 | 4.0 | 10.0 | 0.00 | 0.00 | 0.00 | 68 | 1018.2 |
| 20260503210021 | 78 | 181 | 3.0 | 10.0 | 0.00 | 0.00 | 0.00 | 70 | 1018.6 |
| 20260503204520 | 77 | 134 | 7.0 | 14.0 | 0.00 | 0.00 | 0.00 | 71 | 1018.8 |
| 20260503203018 | 77 | 259 | 2.0 | 8.0 | 0.00 | 0.00 | 0.00 | 72 | 1018.9 |
| 20260503201522 | 77 | 155 | 6.0 | 10.0 | 0.00 | 0.00 | 0.00 | 73 | 1019.3 |
| 20260503200023 | 77 | 229 | 0.0 | 11.0 | 0.00 | 0.00 | 0.00 | 74 | 1019.5 |
| 20260503194513 | 77 | 111 | 3.0 | 10.0 | 0.00 | 0.00 | 0.00 | 75 | 1019.7 |
| 20260503193051 | 76 | 216 | 5.0 | 8.0 | 0.00 | 0.00 | 0.00 | 76 | 1019.9 |
| 20260503191540 | 76 | 242 | 4.0 | 12.0 | 0.00 | 0.00 | 0.00 | 77 | 1020.2 |
| 20260503190009 | 76 | 50 | 1.0 | 10.0 | 0.00 | 0.00 | 0.00 | 78 | 1020.4 |
| 20260503184509 | 75 | 261 | 4.0 | 11.0 | 0.00 | 0.00 | 0.00 | 80 | 1020.6 |
| 20260503183011 | 75 | 211 | 6.0 | 11.0 | 0.00 | 0.00 | 0.00 | 80 | 1020.8 |
| 20260503181600 | 75 | 225 | 5.0 | 10.0 | 0.00 | 0.00 | 0.00 | 81 | 1021.0 |
| 20260503180024 | 75 | 185 | 3.0 | 10.0 | 0.00 | 0.00 | 0.00 | 82 | 1021.3 |
| 20260503174514 | 74 | 171 | 4.0 | 13.0 | 0.00 | 0.00 | 0.00 | 83 | 1021.7 |
| 20260503173036 | 74 | 223 | 4.0 | 10.0 | 0.00 | 0.00 | 0.00 | 84 | 1022.0 |
| 20260503171503 | 73 | 215 | 5.0 | 12.0 | 0.00 | 0.00 | 0.00 | 85 | 1022.2 |